Location: Nairn
(57.5833°N, 3.8667°W)
Time: 03:56:11
(UTC+00:00)

Explorer 7 - Pass Details

Date: 04 December 2020
Orbit: 484 x 678 km, 50.3° (Epoch: 17 January)

Event Time Altitude Azimuth Distance (km) Brightness Sun altitude
Exits shadow 05:05:06 14° 166° (SSE) 1,608 9.3 -26.7°
Drops below altitude 10° 05:05:54 10° 157° (SSE) 1,817 9.7 -26.6°
Sets 05:08:29 0° 140° (SE) 2,670 10.9 -26.3°
